Tracking 29892 objects as of 21-Nov-2024
HD Live streaming from Space Station
objects crossing your sky now

FLOCK 4Q 22

Track FLOCK 4Q 22 now!
10-day predictions
FLOCK 4Q 22 is classified as:


NORAD ID: 58306
Int'l Code: 2023-174BC
Perigee: 485.3 km
Apogee: 497.8 km
Inclination: 97.4 °
Period: 94.3 minutes
Semi major axis: 6862 km
RCS: Unknown
Launch date: November 11, 2023
Source: United States (US)
Launch site: AIR FORCE WESTERN TEST RANGE (AFWTR)
Your satellite tracking list
Your tracking list is empty




NASA's NSSDC Master Catalog

Two Line Element Set (TLE):
1 58306U 23174BC  24325.15948200  .00022026  00000-0  82852-3 0  9994
2 58306  97.4371  38.4436 0009107  41.6280 318.5650 15.27114756 57459
Source of the keplerian elements: AFSPC